Weather in Buenaventura

Colombia     3°52′38″N   77°00′03″W
temp.,
°C
wind,
m/s
gust,
m/s
humid.,
%
clouds,
%
prec.,
mm/h
press.,
hPa
HPBL,
m
20 april, tue
tue2001:00+23ene119794 1.4 101117
04:00+23sse0098100 0.1 101015
07:00+24s019559 0.1 101161
10:00+30w116840 0.2 1012955
13:00+29wsw237695 2.3 1010789
16:00+27wsw2489100 5.8 1009521
19:00+24ssw1194100 13.4 101015
22:00+24sw009691 2.3 101315
21 april, wed
wed2101:00+23sse1198100 3.6 101137
04:00+23s1197100 0.8 101131
07:00+23sse1295100 2.3 101367
10:00+25ne1193100 3.1 1014120
13:00+24nne2394100 4.6 1012304
16:00+24nne2390100 0.1 1010302
19:00+23ne119795 0.1 101121
22:00+23nne119766 0.0 101212
22 april, thu
thu2201:00+22n119899 0.0 101013
04:00+22ne119763 0.0 101012
07:00+23nne119214 0.0 101278
10:00+29n0066100 0.0 1013730
13:00+31nne015999 0.0 10101318
16:00+29wnw227197 0.1 1008771
19:00+24sw1191100 0.4 101023
22:00+24s1193100 0.0 101218
23 april, fri
fri2301:00+24sse119597 0.8 101120
04:00+23sse119799 1.8 101018
07:00+24s019648 2.6 101244
10:00+27wsw238438 5.0 1012463
13:00+30wsw236682 7.0 10091222
16:00+28wsw2374100 2.4 1007637
19:00+25s119078 2.8 101011
22:00+23se1194100 0.2 101225
24 april, sat
sat2401:00+23se009598 0.2 101012
04:00+23se119578 0.0 101017
07:00+24e019158 0.3 101165
10:00+30sw126551 0.0 10121060
13:00+30wsw336356 0.7 10091208
16:00+29wsw337089 1.3 1007716
19:00+25sw119082 1.5 101044
22:00+24sse119542 0.1 101122